Flag for Germany Weather past 2 weeks in Detmold, North Rhine-Westphalia, Germany

Now
51 °F

Overcast.


Feels Like: 51 °F
Forecast: 43 / 70 °F
Wind: 1 mph from North

Location: Bad Lippspringe


UV Index: 3 (Moderate)

Visibility: 12 mi


Pressure: 29.75 "Hg

Humidity: 75%

Dew point: 44 °F

Location of DetmoldLocation

Historic Weather in Detmold

°F

Detmold temperature yesterday

Maximum temperature yesterday: 67 °F (at 5:00 PM)
Minimum temperature yesterday: 51 °F (at 10:00 PM)
Average temperature yesterday: 58 °F

Past Weeks' High & Low Weather Summary

 TemperatureHumidityPressure
High68 °F (Apr 7, 5:00 PM)99% (Apr 6, 8:00 AM)30.47 "Hg (Apr 6, 8:00 AM)
Low28 °F (Apr 16, 7:00 AM)34% (Apr 17, 4:00 PM)29.74 "Hg (Apr 20, 7:00 PM)
Average50 °F74%30.07 "Hg
* Reported Apr 6 2:00 AM — Apr 21 2:00 AM, Detmold, Weather by CustomWeather, © 2014

Note: Actual official high and low records may vary slightly from our data, if they occured in-between our weather recording intervals... More about our weather records

Advertising

Historic Weather Conditions — Data for Previous 24 hours

 ConditionsComfort  
Time TempWeatherWind HumidityBarometerVisibility
2:00 AM
Apr 21
53 °FOvercast.5 mph72%29.77 "Hg12 mi
1:00 AM55 °FOvercast.6 mph66%29.78 "Hg14 mi
12:00 AM53 °FClear.5 mph72%29.79 "Hg10 mi
11:00 PM
Apr 20
53 °FClear.5 mph75%29.79 "Hg10 mi
10:00 PM51 °FClear.5 mph81%29.79 "Hg11 mi
9:00 PM57 °FClear.5 mph63%29.77 "Hg15 mi
8:00 PM61 °FSunny.5 mph54%29.75 "Hg19 mi
7:00 PM65 °FSunny.7 mph40%29.74 "Hg13 mi
6:00 PM66 °FPassing clouds.6 mph41%29.74 "Hg19 mi
5:00 PM67 °FPassing clouds.6 mph42%29.75 "Hg11 mi
4:00 PM66 °FScattered clouds.7 mph45%29.76 "Hg9 mi
3:00 PM65 °FPassing clouds.9 mph48%29.77 "Hg13 mi
2:00 PM64 °FPassing clouds.10 mph54%29.78 "Hg6 mi
1:00 PM61 °FOvercast.7 mph64%29.80 "Hg9 mi
12:00 PM61 °FScattered clouds.5 mph64%29.79 "Hg11 mi
11:00 AM61 °FSunny.7 mph63%29.82 "Hg7 mi
10:00 AM58 °FSunny.5 mph70%29.83 "Hg6 mi
9:00 AM54 °FPassing clouds.3 mph80%29.84 "Hg4 mi
8:00 AM51 °FFog.5 mph85%29.85 "Hg4 mi
7:00 AM51 °FFog.5 mph85%29.85 "Hg4 mi
6:00 AM52 °FFog.7 mph82%29.84 "Hg4 mi
5:00 AM54 °FPassing clouds.8 mph79%29.86 "Hg5 mi
4:00 AM53 °FFog.7 mph81%29.87 "Hg4 mi
3:00 AM53 °FFog.6 mph84%29.89 "Hg4 mi
Weather by CustomWeather, © 2014

See weather overview